Location: Dover
(48.8500°N, 53.9833°W)
Time: 07:31:34
(UTC+00:00)

Timation 2 Rocket - Visible Passes

Search period start: 12 February 2026 00:00
Search period end: 22 February 2026 00:00
Orbit: 906 x 1072 km, 70.0° (Epoch: 11 February)

Date Brightness Start Highest point End Pass type
(mag) Time Alt. Az. Time Alt. Az. Time Alt. Az.
12 Feb 6.4 06:30:09 12° N 06:30:09 12° N 06:30:55 10° N visible
12 Feb 6.1 10:04:26 10° N 10:07:43 15° NNE 10:11:00 10° ENE visible
13 Feb 6.3 06:59:07 12° N 06:59:07 12° N 07:00:12 10° N visible
14 Feb 6.7 05:43:09 10° NNE 05:43:09 10° NNE 05:43:15 10° NNE visible
14 Feb 6.2 09:16:53 10° N 09:19:15 12° NNE 09:21:37 10° NE visible
15 Feb 6.5 06:12:06 11° N 06:12:06 11° N 06:12:37 10° N visible
15 Feb 6.1 09:46:10 10° N 09:50:02 17° NNE 09:53:53 10° ENE visible
16 Feb 6.4 06:41:02 11° N 06:41:02 11° N 06:41:46 10° N visible
16 Feb 6.3 08:29:30 10° N 08:30:44 11° NNE 08:31:58 10° NNE visible
17 Feb 6.2 08:58:33 10° N 09:01:37 14° NNE 09:04:42 10° NE visible
18 Feb 6.6 05:53:58 11° N 05:53:58 11° N 05:54:16 10° N visible
18 Feb 6.0 09:27:54 10° NNW 09:32:18 20° NE 09:36:41 10° E visible
19 Feb 6.3 08:11:01 10° N 08:13:09 12° NNE 08:15:16 10° NE visible
19 Feb 5.5 09:57:22 10° NNW 10:02:41 32° NE 10:08:01 10° ESE visible
20 Feb 6.2 08:40:15 10° N 08:43:56 16° NNE 08:47:38 10° ENE visible
21 Feb 6.6 05:35:44 10° N 05:35:44 10° N 05:35:51 10° N visible
21 Feb 6.5 07:23:47 10° N 07:24:37 10° NNE 07:25:26 10° NNE visible
21 Feb 5.8 09:09:39 10° NNW 09:14:30 25° NE 09:19:20 10° E visible
